PWSweather.com
Personal Weather Stations
Station Observations
EDELWEISS
Edelweiss Mazama, Winthrop, WA 98862

Edelweiss MazamaWinthrop, WA 98862

Lat: 48.55444, Lon: -120.33194

Elevation: 2376

Station Type: Davis Vantage Vue

http://www.otwc.net/weather/index.html

Latest ConditionsUpdated 5:35:00 PM PDT Wednesday, Oct 22, 2014
Currently Today's Max Today's Min Today's Average
Temperature 45.9°F7.7°C 48.5°F9.2°C 43.2°F6.2°C 46.0°F7.8°C
Dew Point 44.5°F6.9°C 44.6°F7.0°C 40.3°F4.6°C 43.0°F6.1°C
Winds Calm Calm 3.0 mph E4.8 kmh E - 1.0 mph 1.6 kmh
Wind Gusts -- 14.0 mph22.5 kmh - -
Humidity 95% 95% 77% 89%
Pressure 29.74 in1007.1 mb 29.89 in1012.2 mb 29.74 in1007.1 mb -
Precipitation - 0.27 in6.9 mm - -
Hour Temp Dew Point Humidity Winds Wind Gusts Pressure Precip Precip Rate Daily Precip Total
05:35 PM 45.9°F7.7°C 44.5°F6.9°C 95% Calm Calm -- 29.74 in1007.1 mb 0.01 in0.3 mm 0.00 in/hr0.0 mm/hr 0.27 in6.9 mm
05:30 PM 46.0°F7.8°C 44.6°F7.0°C 95% Calm Calm -- 29.74 in1007.1 mb 0.01 in0.3 mm 0.00 in/hr0.0 mm/hr 0.27 in6.9 mm
05:25 PM 46.0°F7.8°C 44.4°F6.9°C 94% Calm Calm -- 29.74 in1007.1 mb 0.01 in0.3 mm 0.12 in/hr3.0 mm/hr 0.27 in6.9 mm
05:20 PM 46.0°F7.8°C 44.4°F6.9°C 94% Calm Calm -- 29.74 in1007.1 mb 0.00 in0.0 mm 0.00 in/hr0.0 mm/hr 0.26 in6.6 mm
05:15 PM 46.2°F7.9°C 44.3°F6.8°C 93% Calm Calm -- 29.75 in1007.5 mb 0.00 in0.0 mm 0.00 in/hr0.0 mm/hr 0.26 in6.6 mm
05:10 PM 46.4°F8.0°C 44.5°F6.9°C 93% Calm Calm -- 29.75 in1007.5 mb 0.01 in0.3 mm 0.00 in/hr0.0 mm/hr 0.26 in6.6 mm
05:05 PM 46.4°F8.0°C 44.2°F6.8°C 92% Calm Calm -- 29.75 in1007.5 mb 0.01 in0.3 mm 0.00 in/hr0.0 mm/hr 0.26 in6.6 mm
05:00 PM 46.4°F8.0°C 44.5°F6.9°C 93% Calm Calm -- 29.75 in1007.5 mb 0.01 in0.3 mm 0.00 in/hr0.0 mm/hr 0.26 in6.6 mm
04:55 PM 46.4°F8.0°C 44.5°F6.9°C 93% Calm Calm -- 29.75 in1007.5 mb 0.01 in0.3 mm 0.00 in/hr0.0 mm/hr 0.26 in6.6 mm
04:50 PM 46.4°F8.0°C 44.5°F6.9°C 93% Calm Calm -- 29.76 in1007.8 mb 0.01 in0.3 mm 0.00 in/hr0.0 mm/hr 0.26 in6.6 mm
04:45 PM 46.4°F8.0°C 44.2°F6.8°C 92% Calm Calm -- 29.76 in1007.8 mb 0.01 in0.3 mm 0.00 in/hr0.0 mm/hr 0.26 in6.6 mm
04:40 PM 46.3°F7.9°C 44.1°F6.7°C 92% Calm Calm -- 29.76 in1007.8 mb 0.01 in0.3 mm 0.00 in/hr0.0 mm/hr 0.26 in6.6 mm
04:35 PM 46.3°F7.9°C 44.1°F6.7°C 92% Calm Calm -- 29.76 in1007.8 mb 0.01 in0.3 mm 0.00 in/hr0.0 mm/hr 0.26 in6.6 mm
04:30 PM 46.2°F7.9°C 44.3°F6.8°C 93% Calm Calm -- 29.76 in1007.8 mb 0.01 in0.3 mm 0.00 in/hr0.0 mm/hr 0.26 in6.6 mm
04:25 PM 46.3°F7.9°C 44.4°F6.9°C 93% Calm Calm -- 29.77 in1008.1 mb 0.01 in0.3 mm 0.00 in/hr0.0 mm/hr 0.26 in6.6 mm
04:20 PM 46.3°F7.9°C 44.4°F6.9°C 93% Calm Calm -- 29.77 in1008.1 mb 0.01 in0.3 mm 0.00 in/hr0.0 mm/hr 0.26 in6.6 mm
04:15 PM 46.3°F7.9°C 44.4°F6.9°C 93% Calm Calm -- 29.77 in1008.1 mb 0.01 in0.3 mm 0.12 in/hr3.0 mm/hr 0.26 in6.6 mm
04:10 PM 46.4°F8.0°C 44.2°F6.8°C 92% Calm Calm -- 29.77 in1008.1 mb 0.00 in0.0 mm 0.00 in/hr0.0 mm/hr 0.25 in6.4 mm
04:05 PM 46.4°F8.0°C 44.2°F6.8°C 92% Calm Calm -- 29.77 in1008.1 mb 0.00 in0.0 mm 0.00 in/hr0.0 mm/hr 0.25 in6.4 mm
04:00 PM 46.5°F8.1°C 44.3°F6.8°C 92% Calm Calm 1.0 mph1.6 kmh 29.77 in1008.1 mb 0.00 in0.0 mm 0.00 in/hr0.0 mm/hr 0.25 in6.4 mm
03:55 PM 46.5°F8.1°C 44.0°F6.7°C 91% Calm Calm 1.0 mph1.6 kmh 29.77 in1008.1 mb 0.00 in0.0 mm 0.00 in/hr0.0 mm/hr 0.25 in6.4 mm
03:50 PM 46.6°F8.1°C 44.1°F6.7°C 91% Calm Calm 1.0 mph1.6 kmh 29.78 in1008.5 mb 0.00 in0.0 mm 0.00 in/hr0.0 mm/hr 0.25 in6.4 mm
03:45 PM 46.6°F8.1°C 44.1°F6.7°C 91% Calm Calm 2.0 mph3.2 kmh 29.78 in1008.5 mb 0.00 in0.0 mm 0.00 in/hr0.0 mm/hr 0.25 in6.4 mm
03:40 PM 46.7°F8.2°C 44.2°F6.8°C 91% Calm Calm 3.0 mph4.8 kmh 29.79 in1008.8 mb 0.00 in0.0 mm 0.00 in/hr0.0 mm/hr 0.25 in6.4 mm
03:35 PM 46.7°F8.2°C 43.9°F6.6°C 90% Calm Calm 3.0 mph4.8 kmh 29.79 in1008.8 mb 0.00 in0.0 mm 0.00 in/hr0.0 mm/hr 0.25 in6.4 mm
03:30 PM 46.7°F8.2°C 43.9°F6.6°C 90% Calm Calm 1.0 mph1.6 kmh 29.79 in1008.8 mb 0.00 in0.0 mm 0.00 in/hr0.0 mm/hr 0.25 in6.4 mm
03:25 PM 46.6°F8.1°C 43.8°F6.6°C 90% Calm Calm 2.0 mph3.2 kmh 29.79 in1008.8 mb 0.00 in0.0 mm 0.00 in/hr0.0 mm/hr 0.25 in6.4 mm
03:20 PM 46.5°F8.1°C 43.7°F6.5°C 90% Calm Calm 2.0 mph3.2 kmh 29.79 in1008.8 mb 0.00 in0.0 mm 0.00 in/hr0.0 mm/hr 0.25 in6.4 mm
03:15 PM 46.4°F8.0°C 43.9°F6.6°C 91% Calm Calm 3.0 mph4.8 kmh 29.80 in1009.1 mb 0.00 in0.0 mm 0.00 in/hr0.0 mm/hr 0.25 in6.4 mm
03:10 PM 46.4°F8.0°C 43.9°F6.6°C 91% Calm Calm 3.0 mph4.8 kmh 29.79 in1008.8 mb 0.00 in0.0 mm 0.00 in/hr0.0 mm/hr 0.25 in6.4 mm
03:05 PM 46.4°F8.0°C 43.9°F6.6°C 91% Calm Calm 3.0 mph4.8 kmh 29.80 in1009.1 mb 0.00 in0.0 mm 0.00 in/hr0.0 mm/hr 0.25 in6.4 mm
03:00 PM 46.4°F8.0°C 44.2°F6.8°C 92% Calm Calm 1.0 mph1.6 kmh 29.80 in1009.1 mb 0.00 in0.0 mm 0.00 in/hr0.0 mm/hr 0.25 in6.4 mm
02:55 PM 46.4°F8.0°C 44.2°F6.8°C 92% Calm Calm 1.0 mph1.6 kmh 29.80 in1009.1 mb 0.00 in0.0 mm 0.00 in/hr0.0 mm/hr 0.25 in6.4 mm
02:50 PM 46.4°F8.0°C 44.2°F6.8°C 92% Calm Calm -- 29.79 in1008.8 mb 0.00 in0.0 mm 0.00 in/hr0.0 mm/hr 0.25 in6.4 mm
02:45 PM 46.3°F7.9°C 43.8°F6.6°C 91% 1.0 mph E1.6 kmh E 3.0 mph4.8 kmh 29.80 in1009.1 mb 0.00 in0.0 mm 0.00 in/hr0.0 mm/hr 0.25 in6.4 mm
02:40 PM 46.3°F7.9°C 43.8°F6.6°C 91% Calm Calm 3.0 mph4.8 kmh 29.79 in1008.8 mb 0.00 in0.0 mm 0.00 in/hr0.0 mm/hr 0.25 in6.4 mm
02:35 PM 46.3°F7.9°C 43.8°F6.6°C 91% Calm Calm 3.0 mph4.8 kmh 29.79 in1008.8 mb 0.00 in0.0 mm 0.00 in/hr0.0 mm/hr 0.25 in6.4 mm
02:30 PM 46.2°F7.9°C 44.0°F6.7°C 92% 1.0 mph E1.6 kmh E 2.0 mph3.2 kmh 29.80 in1009.1 mb 0.00 in0.0 mm 0.00 in/hr0.0 mm/hr 0.25 in6.4 mm
02:25 PM 46.2°F7.9°C 43.7°F6.5°C 91% 1.0 mph E1.6 kmh E 3.0 mph4.8 kmh 29.80 in1009.1 mb 0.00 in0.0 mm 0.00 in/hr0.0 mm/hr 0.25 in6.4 mm
02:20 PM 46.3°F7.9°C 43.8°F6.6°C 91% Calm Calm 3.0 mph4.8 kmh 29.81 in1009.5 mb 0.00 in0.0 mm 0.00 in/hr0.0 mm/hr 0.25 in6.4 mm
02:15 PM 46.3°F7.9°C 44.1°F6.7°C 92% Calm Calm -- 29.81 in1009.5 mb 0.00 in0.0 mm 0.00 in/hr0.0 mm/hr 0.25 in6.4 mm
02:10 PM 46.2°F7.9°C 44.0°F6.7°C 92% Calm Calm -- 29.80 in1009.1 mb 0.00 in0.0 mm 0.00 in/hr0.0 mm/hr 0.25 in6.4 mm
02:05 PM 46.1°F7.8°C 44.2°F6.8°C 93% Calm Calm -- 29.80 in1009.1 mb 0.00 in0.0 mm 0.00 in/hr0.0 mm/hr 0.25 in6.4 mm
02:00 PM 46.0°F7.8°C 44.4°F6.9°C 94% Calm Calm -- 29.80 in1009.1 mb 0.00 in0.0 mm 0.00 in/hr0.0 mm/hr 0.25 in6.4 mm
01:55 PM 46.0°F7.8°C 44.4°F6.9°C 94% Calm Calm -- 29.81 in1009.5 mb 0.00 in0.0 mm 0.00 in/hr0.0 mm/hr 0.25 in6.4 mm
01:50 PM 46.1°F7.8°C 44.5°F6.9°C 94% Calm Calm -- 29.82 in1009.8 mb 0.00 in0.0 mm 0.00 in/hr0.0 mm/hr 0.25 in6.4 mm
01:45 PM 46.1°F7.8°C 44.5°F6.9°C 94% Calm Calm -- 29.82 in1009.8 mb 0.01 in0.3 mm 0.00 in/hr0.0 mm/hr 0.25 in6.4 mm
01:40 PM 46.1°F7.8°C 44.5°F6.9°C 94% Calm Calm -- 29.82 in1009.8 mb 0.01 in0.3 mm 0.00 in/hr0.0 mm/hr 0.25 in6.4 mm
01:35 PM 46.1°F7.8°C 44.5°F6.9°C 94% Calm Calm 1.0 mph1.6 kmh 29.82 in1009.8 mb 0.01 in0.3 mm 0.00 in/hr0.0 mm/hr 0.25 in6.4 mm
01:30 PM 46.2°F7.9°C 44.6°F7.0°C 94% Calm Calm 1.0 mph1.6 kmh 29.82 in1009.8 mb 0.01 in0.3 mm 0.00 in/hr0.0 mm/hr 0.25 in6.4 mm
01:25 PM 46.2°F7.9°C 44.3°F6.8°C 93% Calm Calm 1.0 mph1.6 kmh 29.83 in1010.2 mb 0.02 in0.5 mm 0.00 in/hr0.0 mm/hr 0.25 in6.4 mm
01:20 PM 46.1°F7.8°C 44.2°F6.8°C 93% Calm Calm 2.0 mph3.2 kmh 29.83 in1010.2 mb 0.02 in0.5 mm 0.00 in/hr0.0 mm/hr 0.25 in6.4 mm
01:15 PM 45.9°F7.7°C 43.7°F6.5°C 92% Calm Calm 4.0 mph6.4 kmh 29.83 in1010.2 mb 0.02 in0.5 mm 0.00 in/hr0.0 mm/hr 0.25 in6.4 mm
01:10 PM 45.9°F7.7°C 43.7°F6.5°C 92% Calm Calm 4.0 mph6.4 kmh 29.83 in1010.2 mb 0.02 in0.5 mm 0.00 in/hr0.0 mm/hr 0.25 in6.4 mm
01:05 PM 45.9°F7.7°C 43.7°F6.5°C 92% Calm Calm 2.0 mph3.2 kmh 29.83 in1010.2 mb 0.03 in0.8 mm 0.00 in/hr0.0 mm/hr 0.25 in6.4 mm
01:00 PM 45.8°F7.7°C 43.6°F6.4°C 92% Calm Calm 2.0 mph3.2 kmh 29.83 in1010.2 mb 0.03 in0.8 mm 0.00 in/hr0.0 mm/hr 0.25 in6.4 mm
12:55 PM 45.8°F7.7°C 43.9°F6.6°C 93% 1.0 mph E1.6 kmh E 2.0 mph3.2 kmh 29.83 in1010.2 mb 0.03 in0.8 mm 0.00 in/hr0.0 mm/hr 0.25 in6.4 mm
12:50 PM 45.7°F7.6°C 43.5°F6.4°C 92% 1.0 mph ENE1.6 kmh ENE 3.0 mph4.8 kmh 29.84 in1010.5 mb 0.03 in0.8 mm 0.00 in/hr0.0 mm/hr 0.25 in6.4 mm
12:45 PM 45.6°F7.6°C 43.4°F6.3°C 92% 1.0 mph ENE1.6 kmh ENE 3.0 mph4.8 kmh 29.84 in1010.5 mb 0.03 in0.8 mm 0.00 in/hr0.0 mm/hr 0.24 in6.1 mm
12:40 PM 45.6°F7.6°C 43.4°F6.3°C 92% Calm Calm 3.0 mph4.8 kmh 29.84 in1010.5 mb 0.03 in0.8 mm 0.00 in/hr0.0 mm/hr 0.24 in6.1 mm
12:35 PM 45.6°F7.6°C 43.4°F6.3°C 92% 1.0 mph E1.6 kmh E 2.0 mph3.2 kmh 29.85 in1010.8 mb 0.03 in0.8 mm 0.00 in/hr0.0 mm/hr 0.24 in6.1 mm
12:30 PM 45.6°F7.6°C 43.4°F6.3°C 92% 1.0 mph E1.6 kmh E 2.0 mph3.2 kmh 29.85 in1010.8 mb 0.03 in0.8 mm 0.12 in/hr3.0 mm/hr 0.24 in6.1 mm
12:25 PM 45.5°F7.5°C 43.3°F6.3°C 92% 1.0 mph E1.6 kmh E 4.0 mph6.4 kmh 29.84 in1010.5 mb 0.02 in0.5 mm 0.00 in/hr0.0 mm/hr 0.23 in5.8 mm
12:20 PM 45.5°F7.5°C 43.3°F6.3°C 92% 1.0 mph ENE1.6 kmh ENE 5.0 mph8.0 kmh 29.83 in1010.2 mb 0.02 in0.5 mm 0.00 in/hr0.0 mm/hr 0.23 in5.8 mm
12:15 PM 45.6°F7.6°C 43.4°F6.3°C 92% 1.0 mph E1.6 kmh E 5.0 mph8.0 kmh 29.84 in1010.5 mb 0.02 in0.5 mm 0.00 in/hr0.0 mm/hr 0.23 in5.8 mm
12:10 PM 45.5°F7.5°C 43.3°F6.3°C 92% 1.0 mph ENE1.6 kmh ENE 5.0 mph8.0 kmh 29.85 in1010.8 mb 0.03 in0.8 mm 0.12 in/hr3.0 mm/hr 0.23 in5.8 mm
12:05 PM 45.6°F7.6°C 43.4°F6.3°C 92% 1.0 mph ENE1.6 kmh ENE 5.0 mph8.0 kmh 29.85 in1010.8 mb 0.02 in0.5 mm 0.00 in/hr0.0 mm/hr 0.22 in5.6 mm
12:00 PM 45.6°F7.6°C 43.4°F6.3°C 92% 1.0 mph E1.6 kmh E 4.0 mph6.4 kmh 29.85 in1010.8 mb 0.02 in0.5 mm 0.00 in/hr0.0 mm/hr 0.22 in5.6 mm
11:55 AM 45.7°F7.6°C 43.5°F6.4°C 92% 1.0 mph E1.6 kmh E 3.0 mph4.8 kmh 29.85 in1010.8 mb 0.02 in0.5 mm 0.00 in/hr0.0 mm/hr 0.22 in5.6 mm
11:50 AM 45.7°F7.6°C 43.5°F6.4°C 92% 1.0 mph E1.6 kmh E 3.0 mph4.8 kmh 29.84 in1010.5 mb 0.02 in0.5 mm 0.12 in/hr3.0 mm/hr 0.22 in5.6 mm
11:45 AM 45.8°F7.7°C 43.3°F6.3°C 91% 1.0 mph E1.6 kmh E 5.0 mph8.0 kmh 29.84 in1010.5 mb 0.01 in0.3 mm 0.00 in/hr0.0 mm/hr 0.21 in5.3 mm
11:40 AM 45.9°F7.7°C 43.1°F6.2°C 90% 2.0 mph E3.2 kmh E 5.0 mph8.0 kmh 29.83 in1010.2 mb 0.01 in0.3 mm 0.00 in/hr0.0 mm/hr 0.21 in5.3 mm
11:35 AM 46.0°F7.8°C 43.2°F6.2°C 90% 2.0 mph E3.2 kmh E 8.0 mph12.9 kmh 29.84 in1010.5 mb 0.01 in0.3 mm 0.00 in/hr0.0 mm/hr 0.21 in5.3 mm
11:30 AM 45.9°F7.7°C 43.1°F6.2°C 90% 1.0 mph ENE1.6 kmh ENE 8.0 mph12.9 kmh 29.84 in1010.5 mb 0.01 in0.3 mm 0.00 in/hr0.0 mm/hr 0.21 in5.3 mm
11:25 AM 46.0°F7.8°C 43.5°F6.4°C 91% 1.0 mph ENE1.6 kmh ENE 5.0 mph8.0 kmh 29.84 in1010.5 mb 0.01 in0.3 mm 0.00 in/hr0.0 mm/hr 0.21 in5.3 mm
11:20 AM 45.9°F7.7°C 43.1°F6.2°C 90% 1.0 mph E1.6 kmh E 7.0 mph11.3 kmh 29.84 in1010.5 mb 0.01 in0.3 mm 0.00 in/hr0.0 mm/hr 0.21 in5.3 mm
11:15 AM 45.8°F7.7°C 43.3°F6.3°C 91% Calm Calm 7.0 mph11.3 kmh 29.84 in1010.5 mb 0.01 in0.3 mm 0.12 in/hr3.0 mm/hr 0.21 in5.3 mm
11:10 AM 45.8°F7.7°C 43.9°F6.6°C 93% Calm Calm 4.0 mph6.4 kmh 29.84 in1010.5 mb 0.00 in0.0 mm 0.00 in/hr0.0 mm/hr 0.20 in5.1 mm
11:05 AM 45.7°F7.6°C 43.8°F6.6°C 93% Calm Calm -- 29.84 in1010.5 mb 0.00 in0.0 mm 0.00 in/hr0.0 mm/hr 0.20 in5.1 mm
11:00 AM 45.6°F7.6°C 43.7°F6.5°C 93% Calm Calm 2.0 mph3.2 kmh 29.84 in1010.5 mb 0.00 in0.0 mm 0.00 in/hr0.0 mm/hr 0.20 in5.1 mm
10:55 AM 45.7°F7.6°C 43.8°F6.6°C 93% Calm Calm 2.0 mph3.2 kmh 29.84 in1010.5 mb 0.00 in0.0 mm 0.00 in/hr0.0 mm/hr 0.20 in5.1 mm
10:50 AM 45.9°F7.7°C 44.0°F6.7°C 93% Calm Calm 2.0 mph3.2 kmh 29.84 in1010.5 mb 0.00 in0.0 mm 0.00 in/hr0.0 mm/hr 0.20 in5.1 mm
10:45 AM 45.9°F7.7°C 43.7°F6.5°C 92% Calm Calm 2.0 mph3.2 kmh 29.84 in1010.5 mb 0.00 in0.0 mm 0.00 in/hr0.0 mm/hr 0.20 in5.1 mm
10:40 AM 46.1°F7.8°C 43.9°F6.6°C 92% 1.0 mph E1.6 kmh E 1.0 mph1.6 kmh 29.84 in1010.5 mb 0.00 in0.0 mm 0.00 in/hr0.0 mm/hr 0.20 in5.1 mm
10:35 AM 46.1°F7.8°C 43.6°F6.4°C 91% 2.0 mph E3.2 kmh E 8.0 mph12.9 kmh 29.84 in1010.5 mb 0.00 in0.0 mm 0.00 in/hr0.0 mm/hr 0.20 in5.1 mm
10:30 AM 45.9°F7.7°C 43.1°F6.2°C 90% 2.0 mph E3.2 kmh E 8.0 mph12.9 kmh 29.84 in1010.5 mb 0.00 in0.0 mm 0.00 in/hr0.0 mm/hr 0.20 in5.1 mm
10:25 AM 45.7°F7.6°C 42.9°F6.1°C 90% 1.0 mph ENE1.6 kmh ENE 7.0 mph11.3 kmh 29.84 in1010.5 mb 0.00 in0.0 mm 0.00 in/hr0.0 mm/hr 0.20 in5.1 mm
10:20 AM 45.6°F7.6°C 43.1°F6.2°C 91% 1.0 mph E1.6 kmh E 5.0 mph8.0 kmh 29.84 in1010.5 mb 0.00 in0.0 mm 0.00 in/hr0.0 mm/hr 0.20 in5.1 mm
10:15 AM 45.5°F7.5°C 43.0°F6.1°C 91% 1.0 mph E1.6 kmh E 5.0 mph8.0 kmh 29.85 in1010.8 mb 0.01 in0.3 mm 0.00 in/hr0.0 mm/hr 0.20 in5.1 mm
10:10 AM 45.5°F7.5°C 43.3°F6.3°C 92% 2.0 mph E3.2 kmh E 7.0 mph11.3 kmh 29.84 in1010.5 mb 0.01 in0.3 mm 0.00 in/hr0.0 mm/hr 0.20 in5.1 mm
10:05 AM 45.4°F7.4°C 42.9°F6.1°C 91% 2.0 mph E3.2 kmh E 7.0 mph11.3 kmh 29.85 in1010.8 mb 0.01 in0.3 mm 0.00 in/hr0.0 mm/hr 0.20 in5.1 mm
10:00 AM 45.3°F7.4°C 42.8°F6.0°C 91% 2.0 mph E3.2 kmh E 7.0 mph11.3 kmh 29.84 in1010.5 mb 0.01 in0.3 mm 0.00 in/hr0.0 mm/hr 0.20 in5.1 mm
09:55 AM 45.2°F7.3°C 43.0°F6.1°C 92% 2.0 mph E3.2 kmh E 7.0 mph11.3 kmh 29.84 in1010.5 mb 0.01 in0.3 mm 0.00 in/hr0.0 mm/hr 0.20 in5.1 mm
09:50 AM 45.1°F7.3°C 42.9°F6.1°C 92% 2.0 mph E3.2 kmh E 5.0 mph8.0 kmh 29.84 in1010.5 mb 0.01 in0.3 mm 0.00 in/hr0.0 mm/hr 0.20 in5.1 mm
09:45 AM 45.1°F7.3°C 42.9°F6.1°C 92% 2.0 mph E3.2 kmh E 6.0 mph9.7 kmh 29.84 in1010.5 mb 0.02 in0.5 mm 0.00 in/hr0.0 mm/hr 0.20 in5.1 mm
09:40 AM 45.1°F7.3°C 42.6°F5.9°C 91% 1.0 mph E1.6 kmh E 6.0 mph9.7 kmh 29.85 in1010.8 mb 0.02 in0.5 mm 0.00 in/hr0.0 mm/hr 0.20 in5.1 mm
09:35 AM 45.1°F7.3°C 42.9°F6.1°C 92% 2.0 mph E3.2 kmh E 6.0 mph9.7 kmh 29.85 in1010.8 mb 0.02 in0.5 mm 0.00 in/hr0.0 mm/hr 0.20 in5.1 mm
09:30 AM 45.2°F7.3°C 43.0°F6.1°C 92% 2.0 mph E3.2 kmh E 6.0 mph9.7 kmh 29.85 in1010.8 mb 0.03 in0.8 mm 0.00 in/hr0.0 mm/hr 0.20 in5.1 mm
09:25 AM 45.3°F7.4°C 42.8°F6.0°C 91% 1.0 mph E1.6 kmh E 6.0 mph9.7 kmh 29.84 in1010.5 mb 0.03 in0.8 mm 0.00 in/hr0.0 mm/hr 0.20 in5.1 mm
09:20 AM 45.2°F7.3°C 43.0°F6.1°C 92% 2.0 mph ENE3.2 kmh ENE 4.0 mph6.4 kmh 29.84 in1010.5 mb 0.03 in0.8 mm 0.00 in/hr0.0 mm/hr 0.20 in5.1 mm
09:15 AM 45.3°F7.4°C 43.1°F6.2°C 92% 2.0 mph ENE3.2 kmh ENE 5.0 mph8.0 kmh 29.85 in1010.8 mb 0.03 in0.8 mm 0.00 in/hr0.0 mm/hr 0.19 in4.8 mm
09:10 AM 45.2°F7.3°C 42.7°F5.9°C 91% 3.0 mph NE4.8 kmh NE 5.0 mph8.0 kmh 29.85 in1010.8 mb 0.03 in0.8 mm 0.00 in/hr0.0 mm/hr 0.19 in4.8 mm
09:05 AM 45.1°F7.3°C 42.9°F6.1°C 92% 3.0 mph NE4.8 kmh NE 8.0 mph12.9 kmh 29.85 in1010.8 mb 0.03 in0.8 mm 0.00 in/hr0.0 mm/hr 0.19 in4.8 mm
09:00 AM 45.1°F7.3°C 42.9°F6.1°C 92% 2.0 mph NE3.2 kmh NE 8.0 mph12.9 kmh 29.84 in1010.5 mb 0.03 in0.8 mm 0.00 in/hr0.0 mm/hr 0.19 in4.8 mm
08:55 AM 45.0°F7.2°C 43.1°F6.2°C 93% 1.0 mph ENE1.6 kmh ENE 7.0 mph11.3 kmh 29.84 in1010.5 mb 0.03 in0.8 mm 0.00 in/hr0.0 mm/hr 0.19 in4.8 mm
08:50 AM 45.0°F7.2°C 43.1°F6.2°C 93% 2.0 mph ENE3.2 kmh ENE 3.0 mph4.8 kmh 29.85 in1010.8 mb 0.04 in1.0 mm 0.12 in/hr3.0 mm/hr 0.19 in4.8 mm
08:45 AM 45.0°F7.2°C 43.1°F6.2°C 93% 2.0 mph ENE3.2 kmh ENE 3.0 mph4.8 kmh 29.84 in1010.5 mb 0.03 in0.8 mm 0.00 in/hr0.0 mm/hr 0.18 in4.6 mm
08:40 AM 45.0°F7.2°C 43.1°F6.2°C 93% 2.0 mph ENE3.2 kmh ENE 3.0 mph4.8 kmh 29.83 in1010.2 mb 0.04 in1.0 mm 0.00 in/hr0.0 mm/hr 0.18 in4.6 mm
08:35 AM 45.2°F7.3°C 43.3°F6.3°C 93% 3.0 mph ENE4.8 kmh ENE 9.0 mph14.5 kmh 29.82 in1009.8 mb 0.04 in1.0 mm 0.12 in/hr3.0 mm/hr 0.18 in4.6 mm
08:30 AM 45.2°F7.3°C 43.0°F6.1°C 92% 2.0 mph ENE3.2 kmh ENE 9.0 mph14.5 kmh 29.84 in1010.5 mb 0.03 in0.8 mm 0.00 in/hr0.0 mm/hr 0.17 in4.3 mm
08:25 AM 45.2°F7.3°C 43.3°F6.3°C 93% 2.0 mph ENE3.2 kmh ENE 8.0 mph12.9 kmh 29.84 in1010.5 mb 0.03 in0.8 mm 0.00 in/hr0.0 mm/hr 0.17 in4.3 mm
08:20 AM 45.1°F7.3°C 43.2°F6.2°C 93% 2.0 mph ENE3.2 kmh ENE 6.0 mph9.7 kmh 29.84 in1010.5 mb 0.04 in1.0 mm 0.12 in/hr3.0 mm/hr 0.17 in4.3 mm
08:15 AM 45.0°F7.2°C 43.1°F6.2°C 93% 2.0 mph ENE3.2 kmh ENE 6.0 mph9.7 kmh 29.83 in1010.2 mb 0.03 in0.8 mm 0.00 in/hr0.0 mm/hr 0.16 in4.1 mm
08:10 AM 44.9°F7.2°C 43.0°F6.1°C 93% 1.0 mph ENE1.6 kmh ENE 4.0 mph6.4 kmh 29.83 in1010.2 mb 0.03 in0.8 mm 0.00 in/hr0.0 mm/hr 0.16 in4.1 mm
08:05 AM 45.0°F7.2°C 43.4°F6.3°C 94% 1.0 mph NE1.6 kmh NE 4.0 mph6.4 kmh 29.83 in1010.2 mb 0.04 in1.0 mm 0.00 in/hr0.0 mm/hr 0.16 in4.1 mm
08:00 AM 45.1°F7.3°C 43.2°F6.2°C 93% 1.0 mph ENE1.6 kmh ENE 5.0 mph8.0 kmh 29.83 in1010.2 mb 0.05 in1.3 mm 0.00 in/hr0.0 mm/hr 0.16 in4.1 mm
07:55 AM 45.2°F7.3°C 43.3°F6.3°C 93% 1.0 mph ENE1.6 kmh ENE 5.0 mph8.0 kmh 29.83 in1010.2 mb 0.06 in1.5 mm 0.00 in/hr0.0 mm/hr 0.15 in3.8 mm
07:50 AM 45.3°F7.4°C 43.4°F6.3°C 93% 2.0 mph ENE3.2 kmh ENE 3.0 mph4.8 kmh 29.83 in1010.2 mb 0.06 in1.5 mm 0.00 in/hr0.0 mm/hr 0.15 in3.8 mm
07:45 AM 45.4°F7.4°C 43.5°F6.4°C 93% 2.0 mph ENE3.2 kmh ENE 6.0 mph9.7 kmh 29.83 in1010.2 mb 0.07 in1.8 mm 0.00 in/hr0.0 mm/hr 0.15 in3.8 mm
07:40 AM 45.5°F7.5°C 43.6°F6.4°C 93% 2.0 mph ENE3.2 kmh ENE 6.0 mph9.7 kmh 29.83 in1010.2 mb 0.07 in1.8 mm 0.00 in/hr0.0 mm/hr 0.14 in3.6 mm
07:35 AM 45.4°F7.4°C 43.5°F6.4°C 93% 2.0 mph NE3.2 kmh NE 5.0 mph8.0 kmh 29.83 in1010.2 mb 0.07 in1.8 mm 0.00 in/hr0.0 mm/hr 0.14 in3.6 mm
07:30 AM 45.4°F7.4°C 43.8°F6.6°C 94% 1.0 mph NE1.6 kmh NE 5.0 mph8.0 kmh 29.83 in1010.2 mb 0.07 in1.8 mm 0.00 in/hr0.0 mm/hr 0.14 in3.6 mm
07:25 AM 45.3°F7.4°C 43.7°F6.5°C 94% 1.0 mph NE1.6 kmh NE 3.0 mph4.8 kmh 29.83 in1010.2 mb 0.07 in1.8 mm 0.00 in/hr0.0 mm/hr 0.14 in3.6 mm
07:20 AM 45.3°F7.4°C 43.7°F6.5°C 94% 1.0 mph ENE1.6 kmh ENE 3.0 mph4.8 kmh 29.83 in1010.2 mb 0.08 in2.0 mm 0.00 in/hr0.0 mm/hr 0.13 in3.3 mm
07:15 AM 45.4°F7.4°C 43.8°F6.6°C 94% 1.0 mph ENE1.6 kmh ENE 4.0 mph6.4 kmh 29.83 in1010.2 mb 0.09 in2.3 mm 0.00 in/hr0.0 mm/hr 0.13 in3.3 mm
07:10 AM 45.5°F7.5°C 43.9°F6.6°C 94% 1.0 mph NE1.6 kmh NE 4.0 mph6.4 kmh 29.82 in1009.8 mb 0.09 in2.3 mm 0.12 in/hr3.0 mm/hr 0.12 in3.0 mm
07:05 AM 45.5°F7.5°C 43.9°F6.6°C 94% 1.0 mph NE1.6 kmh NE 4.0 mph6.4 kmh 29.83 in1010.2 mb 0.08 in2.0 mm 0.00 in/hr0.0 mm/hr 0.11 in2.8 mm
07:00 AM 45.5°F7.5°C 43.6°F6.4°C 93% 1.0 mph NNE1.6 kmh NNE 3.0 mph4.8 kmh 29.82 in1009.8 mb 0.08 in2.0 mm 0.01 in/hr0.3 mm/hr 0.11 in2.8 mm
06:55 AM 45.5°F7.5°C 43.6°F6.4°C 93% 1.0 mph NE1.6 kmh NE 5.0 mph8.0 kmh 29.82 in1009.8 mb 0.07 in1.8 mm 0.12 in/hr3.0 mm/hr 0.09 in2.3 mm
06:50 AM 45.5°F7.5°C 43.6°F6.4°C 93% 1.0 mph ENE1.6 kmh ENE 5.0 mph8.0 kmh 29.83 in1010.2 mb 0.06 in1.5 mm 0.00 in/hr0.0 mm/hr 0.08 in2.0 mm
06:45 AM 45.6°F7.6°C 43.7°F6.5°C 93% 1.0 mph ENE1.6 kmh ENE 4.0 mph6.4 kmh 29.83 in1010.2 mb 0.06 in1.5 mm 0.12 in/hr3.0 mm/hr 0.08 in2.0 mm
06:40 AM 45.6°F7.6°C 43.7°F6.5°C 93% 1.0 mph ENE1.6 kmh ENE 4.0 mph6.4 kmh 29.83 in1010.2 mb 0.05 in1.3 mm 0.00 in/hr0.0 mm/hr 0.07 in1.8 mm
06:35 AM 45.6°F7.6°C 43.7°F6.5°C 93% 1.0 mph E1.6 kmh E 4.0 mph6.4 kmh 29.83 in1010.2 mb 0.05 in1.3 mm 0.00 in/hr0.0 mm/hr 0.07 in1.8 mm
06:30 AM 45.7°F7.6°C 43.8°F6.6°C 93% 1.0 mph E1.6 kmh E 4.0 mph6.4 kmh 29.83 in1010.2 mb 0.06 in1.5 mm 0.12 in/hr3.0 mm/hr 0.07 in1.8 mm
06:25 AM 45.8°F7.7°C 43.6°F6.4°C 92% 2.0 mph E3.2 kmh E 5.0 mph8.0 kmh 29.83 in1010.2 mb 0.05 in1.3 mm 0.12 in/hr3.0 mm/hr 0.06 in1.5 mm
06:20 AM 46.0°F7.8°C 43.5°F6.4°C 91% 2.0 mph E3.2 kmh E 11.0 mph17.7 kmh 29.83 in1010.2 mb 0.04 in1.0 mm 0.12 in/hr3.0 mm/hr 0.05 in1.3 mm
06:15 AM 46.1°F7.8°C 43.3°F6.3°C 90% 2.0 mph E3.2 kmh E 11.0 mph17.7 kmh 29.83 in1010.2 mb 0.03 in0.8 mm 0.12 in/hr3.0 mm/hr 0.04 in1.0 mm
06:10 AM 46.2°F7.9°C 43.4°F6.3°C 90% 2.0 mph ENE3.2 kmh ENE 7.0 mph11.3 kmh 29.83 in1010.2 mb 0.02 in0.5 mm 0.00 in/hr0.0 mm/hr 0.03 in0.8 mm
06:05 AM 46.3°F7.9°C 43.2°F6.2°C 89% 2.0 mph ENE3.2 kmh ENE 7.0 mph11.3 kmh 29.84 in1010.5 mb 0.03 in0.8 mm 0.00 in/hr0.0 mm/hr 0.03 in0.8 mm
06:00 AM 46.3°F7.9°C 43.2°F6.2°C 89% 2.0 mph ENE3.2 kmh ENE 10.0 mph16.1 kmh 29.84 in1010.5 mb 0.03 in0.8 mm 0.01 in/hr0.3 mm/hr 0.03 in0.8 mm
05:55 AM 46.3°F7.9°C 43.2°F6.2°C 89% 2.0 mph ENE3.2 kmh ENE 10.0 mph16.1 kmh 29.84 in1010.5 mb 0.02 in0.5 mm 0.00 in/hr0.0 mm/hr 0.02 in0.5 mm
05:50 AM 46.3°F7.9°C 43.2°F6.2°C 89% 2.0 mph ENE3.2 kmh ENE 6.0 mph9.7 kmh 29.84 in1010.5 mb 0.02 in0.5 mm 0.00 in/hr0.0 mm/hr 0.02 in0.5 mm
05:45 AM 46.3°F7.9°C 43.2°F6.2°C 89% 2.0 mph ENE3.2 kmh ENE 7.0 mph11.3 kmh 29.84 in1010.5 mb 0.02 in0.5 mm 0.00 in/hr0.0 mm/hr 0.02 in0.5 mm
05:40 AM 46.4°F8.0°C 43.0°F6.1°C 88% 1.0 mph ENE1.6 kmh ENE 7.0 mph11.3 kmh 29.84 in1010.5 mb 0.02 in0.5 mm 0.00 in/hr0.0 mm/hr 0.02 in0.5 mm
05:35 AM 46.3°F7.9°C 42.9°F6.1°C 88% 2.0 mph ENE3.2 kmh ENE 6.0 mph9.7 kmh 29.84 in1010.5 mb 0.02 in0.5 mm 0.12 in/hr3.0 mm/hr 0.02 in0.5 mm
05:30 AM 46.4°F8.0°C 43.0°F6.1°C 88% 2.0 mph ENE3.2 kmh ENE 7.0 mph11.3 kmh 29.84 in1010.5 mb 0.01 in0.3 mm 0.00 in/hr0.0 mm/hr 0.01 in0.3 mm
05:25 AM 46.5°F8.1°C 43.1°F6.2°C 88% 2.0 mph ENE3.2 kmh ENE 7.0 mph11.3 kmh 29.84 in1010.5 mb 0.01 in0.3 mm 0.00 in/hr0.0 mm/hr 0.01 in0.3 mm
05:20 AM 46.6°F8.1°C 42.9°F6.1°C 87% 2.0 mph ENE3.2 kmh ENE 7.0 mph11.3 kmh 29.84 in1010.5 mb 0.01 in0.3 mm 0.00 in/hr0.0 mm/hr 0.01 in0.3 mm
05:15 AM 46.8°F8.2°C 43.1°F6.2°C 87% 2.0 mph ENE3.2 kmh ENE 5.0 mph8.0 kmh 29.84 in1010.5 mb 0.01 in0.3 mm 0.00 in/hr0.0 mm/hr 0.01 in0.3 mm
05:10 AM 47.0°F8.3°C 42.7°F5.9°C 85% 2.0 mph ESE3.2 kmh ESE 8.0 mph12.9 kmh 29.84 in1010.5 mb 0.01 in0.3 mm 0.12 in/hr3.0 mm/hr 0.01 in0.3 mm
05:05 AM 47.2°F8.4°C 42.6°F5.9°C 84% 2.0 mph E3.2 kmh E 8.0 mph12.9 kmh 29.84 in1010.5 mb 0.00 in0.0 mm 0.00 in/hr0.0 mm/hr 0.00 in0.0 mm
05:00 AM 47.1°F8.4°C 42.5°F5.8°C 84% 2.0 mph E3.2 kmh E 7.0 mph11.3 kmh 29.84 in1010.5 mb 0.00 in0.0 mm 0.00 in/hr0.0 mm/hr 0.00 in0.0 mm
04:55 AM 47.0°F8.3°C 42.4°F5.8°C 84% 1.0 mph ENE1.6 kmh ENE 7.0 mph11.3 kmh 29.84 in1010.5 mb 0.00 in0.0 mm 0.00 in/hr0.0 mm/hr 0.00 in0.0 mm
04:50 AM 47.0°F8.3°C 42.4°F5.8°C 84% 2.0 mph ENE3.2 kmh ENE 6.0 mph9.7 kmh 29.84 in1010.5 mb 0.00 in0.0 mm 0.00 in/hr0.0 mm/hr 0.00 in0.0 mm
04:45 AM 47.1°F8.4°C 42.5°F5.8°C 84% 2.0 mph E3.2 kmh E 5.0 mph8.0 kmh 29.84 in1010.5 mb 0.00 in0.0 mm 0.00 in/hr0.0 mm/hr 0.00 in0.0 mm
04:40 AM 47.4°F8.6°C 42.5°F5.8°C 83% 2.0 mph E3.2 kmh E 10.0 mph16.1 kmh 29.84 in1010.5 mb 0.00 in0.0 mm 0.00 in/hr0.0 mm/hr 0.00 in0.0 mm
04:35 AM 47.5°F8.6°C 42.3°F5.7°C 82% 2.0 mph E3.2 kmh E 10.0 mph16.1 kmh 29.84 in1010.5 mb 0.00 in0.0 mm 0.00 in/hr0.0 mm/hr 0.00 in0.0 mm
04:30 AM 47.5°F8.6°C 42.3°F5.7°C 82% 2.0 mph E3.2 kmh E 10.0 mph16.1 kmh 29.83 in1010.2 mb 0.00 in0.0 mm 0.00 in/hr0.0 mm/hr 0.00 in0.0 mm
04:25 AM 47.6°F8.7°C 42.4°F5.8°C 82% 2.0 mph E3.2 kmh E 10.0 mph16.1 kmh 29.84 in1010.5 mb 0.00 in0.0 mm 0.00 in/hr0.0 mm/hr 0.00 in0.0 mm
04:20 AM 47.6°F8.7°C 41.7°F5.4°C 80% 2.0 mph E3.2 kmh E 6.0 mph9.7 kmh 29.84 in1010.5 mb 0.00 in0.0 mm 0.00 in/hr0.0 mm/hr 0.00 in0.0 mm
04:15 AM 47.7°F8.7°C 42.2°F5.7°C 81% 3.0 mph E4.8 kmh E 6.0 mph9.7 kmh 29.84 in1010.5 mb 0.00 in0.0 mm 0.00 in/hr0.0 mm/hr 0.00 in0.0 mm
04:10 AM 47.8°F8.8°C 41.9°F5.5°C 80% 3.0 mph E4.8 kmh E 10.0 mph16.1 kmh 29.84 in1010.5 mb 0.00 in0.0 mm 0.00 in/hr0.0 mm/hr 0.00 in0.0 mm
04:05 AM 48.0°F8.9°C 42.1°F5.6°C 80% 3.0 mph E4.8 kmh E 10.0 mph16.1 kmh 29.85 in1010.8 mb 0.00 in0.0 mm 0.00 in/hr0.0 mm/hr 0.00 in0.0 mm
04:00 AM 48.0°F8.9°C 41.8°F5.4°C 79% 3.0 mph E4.8 kmh E 10.0 mph16.1 kmh 29.85 in1010.8 mb 0.00 in0.0 mm 0.00 in/hr0.0 mm/hr 0.00 in0.0 mm
03:55 AM 48.0°F8.9°C 41.8°F5.4°C 79% 3.0 mph E4.8 kmh E 7.0 mph11.3 kmh 29.85 in1010.8 mb 0.00 in0.0 mm 0.00 in/hr0.0 mm/hr 0.00 in0.0 mm
03:50 AM 48.1°F8.9°C 41.9°F5.5°C 79% 3.0 mph E4.8 kmh E 8.0 mph12.9 kmh 29.85 in1010.8 mb 0.00 in0.0 mm 0.00 in/hr0.0 mm/hr 0.00 in0.0 mm
03:45 AM 48.2°F9.0°C 42.0°F5.6°C 79% 3.0 mph E4.8 kmh E 8.0 mph12.9 kmh 29.85 in1010.8 mb 0.00 in0.0 mm 0.00 in/hr0.0 mm/hr 0.00 in0.0 mm
03:40 AM 48.2°F9.0°C 41.7°F5.4°C 78% 2.0 mph ENE3.2 kmh ENE 8.0 mph12.9 kmh 29.85 in1010.8 mb 0.00 in0.0 mm 0.00 in/hr0.0 mm/hr 0.00 in0.0 mm
03:35 AM 48.1°F8.9°C 41.6°F5.3°C 78% 2.0 mph ENE3.2 kmh ENE 8.0 mph12.9 kmh 29.85 in1010.8 mb 0.00 in0.0 mm 0.00 in/hr0.0 mm/hr 0.00 in0.0 mm
03:30 AM 48.0°F8.9°C 41.8°F5.4°C 79% 2.0 mph E3.2 kmh E 8.0 mph12.9 kmh 29.86 in1011.2 mb 0.00 in0.0 mm 0.00 in/hr0.0 mm/hr 0.00 in0.0 mm
03:25 AM 48.0°F8.9°C 41.5°F5.3°C 78% 2.0 mph E3.2 kmh E 8.0 mph12.9 kmh 29.86 in1011.2 mb 0.00 in0.0 mm 0.00 in/hr0.0 mm/hr 0.00 in0.0 mm
03:20 AM 48.0°F8.9°C 41.8°F5.4°C 79% 2.0 mph E3.2 kmh E 8.0 mph12.9 kmh 29.86 in1011.2 mb 0.00 in0.0 mm 0.00 in/hr0.0 mm/hr 0.00 in0.0 mm
03:15 AM 47.8°F8.8°C 41.6°F5.3°C 79% 1.0 mph E1.6 kmh E 7.0 mph11.3 kmh 29.85 in1010.8 mb 0.00 in0.0 mm 0.00 in/hr0.0 mm/hr 0.00 in0.0 mm
03:10 AM 47.7°F8.7°C 41.5°F5.3°C 79% 1.0 mph E1.6 kmh E 7.0 mph11.3 kmh 29.86 in1011.2 mb 0.00 in0.0 mm 0.00 in/hr0.0 mm/hr 0.00 in0.0 mm
03:05 AM 47.9°F8.8°C 41.7°F5.4°C 79% 2.0 mph E3.2 kmh E 9.0 mph14.5 kmh 29.86 in1011.2 mb 0.00 in0.0 mm 0.00 in/hr0.0 mm/hr 0.00 in0.0 mm
03:00 AM 48.1°F8.9°C 41.6°F5.3°C 78% 3.0 mph E4.8 kmh E 9.0 mph14.5 kmh 29.86 in1011.2 mb 0.00 in0.0 mm 0.00 in/hr0.0 mm/hr 0.00 in0.0 mm
02:55 AM 48.1°F8.9°C 41.6°F5.3°C 78% 3.0 mph E4.8 kmh E 12.0 mph19.3 kmh 29.86 in1011.2 mb 0.00 in0.0 mm 0.00 in/hr0.0 mm/hr 0.00 in0.0 mm
02:50 AM 48.3°F9.1°C 41.8°F5.4°C 78% 3.0 mph E4.8 kmh E 12.0 mph19.3 kmh 29.86 in1011.2 mb 0.00 in0.0 mm 0.00 in/hr0.0 mm/hr 0.00 in0.0 mm
02:45 AM 48.5°F9.2°C 41.6°F5.3°C 77% 3.0 mph E4.8 kmh E 14.0 mph22.5 kmh 29.86 in1011.2 mb 0.00 in0.0 mm 0.00 in/hr0.0 mm/hr 0.00 in0.0 mm
02:40 AM 48.5°F9.2°C 41.6°F5.3°C 77% 3.0 mph E4.8 kmh E 14.0 mph22.5 kmh 29.86 in1011.2 mb 0.00 in0.0 mm 0.00 in/hr0.0 mm/hr 0.00 in0.0 mm
02:35 AM 48.4°F9.1°C 41.9°F5.5°C 78% 3.0 mph E4.8 kmh E 9.0 mph14.5 kmh 29.86 in1011.2 mb 0.00 in0.0 mm 0.00 in/hr0.0 mm/hr 0.00 in0.0 mm
02:30 AM 48.5°F9.2°C 41.6°F5.3°C 77% 3.0 mph E4.8 kmh E 7.0 mph11.3 kmh 29.87 in1011.5 mb 0.00 in0.0 mm 0.00 in/hr0.0 mm/hr 0.00 in0.0 mm
02:25 AM 48.3°F9.1°C 41.4°F5.2°C 77% 2.0 mph E3.2 kmh E 8.0 mph12.9 kmh 29.86 in1011.2 mb 0.00 in0.0 mm 0.00 in/hr0.0 mm/hr 0.00 in0.0 mm
02:20 AM 47.7°F8.7°C 41.5°F5.3°C 79% 1.0 mph ENE1.6 kmh ENE 8.0 mph12.9 kmh 29.86 in1011.2 mb 0.00 in0.0 mm 0.00 in/hr0.0 mm/hr 0.00 in0.0 mm
02:15 AM 46.4°F8.0°C 41.2°F5.1°C 82% 1.0 mph E1.6 kmh E 3.0 mph4.8 kmh 29.86 in1011.2 mb 0.00 in0.0 mm 0.00 in/hr0.0 mm/hr 0.00 in0.0 mm
02:10 AM 46.3°F7.9°C 41.1°F5.1°C 82% 1.0 mph SE1.6 kmh SE 2.0 mph3.2 kmh 29.86 in1011.2 mb 0.00 in0.0 mm 0.00 in/hr0.0 mm/hr 0.00 in0.0 mm
02:05 AM 47.1°F8.4°C 41.9°F5.5°C 82% 1.0 mph ENE1.6 kmh ENE 6.0 mph9.7 kmh 29.87 in1011.5 mb 0.00 in0.0 mm 0.00 in/hr0.0 mm/hr 0.00 in0.0 mm
02:00 AM 46.6°F8.1°C 41.4°F5.2°C 82% 1.0 mph ENE1.6 kmh ENE 6.0 mph9.7 kmh 29.87 in1011.5 mb 0.00 in0.0 mm 0.00 in/hr0.0 mm/hr 0.00 in0.0 mm
01:55 AM 45.2°F7.3°C 41.0°F5.0°C 85% Calm Calm 5.0 mph8.0 kmh 29.87 in1011.5 mb 0.00 in0.0 mm 0.00 in/hr0.0 mm/hr 0.00 in0.0 mm
01:50 AM 43.7°F6.5°C 40.7°F4.8°C 89% Calm Calm 1.0 mph1.6 kmh 29.87 in1011.5 mb 0.00 in0.0 mm 0.00 in/hr0.0 mm/hr 0.00 in0.0 mm
01:45 AM 43.2°F6.2°C 40.8°F4.9°C 91% Calm Calm -- 29.87 in1011.5 mb 0.00 in0.0 mm 0.00 in/hr0.0 mm/hr 0.00 in0.0 mm
01:40 AM 43.3°F6.3°C 40.8°F4.9°C 91% Calm Calm -- 29.88 in1011.9 mb 0.00 in0.0 mm 0.00 in/hr0.0 mm/hr 0.00 in0.0 mm
01:35 AM 43.6°F6.4°C 40.9°F4.9°C 90% Calm Calm -- 29.88 in1011.9 mb 0.00 in0.0 mm 0.00 in/hr0.0 mm/hr 0.00 in0.0 mm
01:30 AM 44.0°F6.7°C 41.0°F5.0°C 89% Calm Calm -- 29.87 in1011.5 mb 0.00 in0.0 mm 0.00 in/hr0.0 mm/hr 0.00 in0.0 mm
01:25 AM 44.1°F6.7°C 40.8°F4.9°C 88% Calm Calm 1.0 mph1.6 kmh 29.87 in1011.5 mb 0.00 in0.0 mm 0.00 in/hr0.0 mm/hr 0.00 in0.0 mm
01:20 AM 44.1°F6.7°C 40.8°F4.9°C 88% Calm Calm 2.0 mph3.2 kmh 29.87 in1011.5 mb 0.00 in0.0 mm 0.00 in/hr0.0 mm/hr 0.00 in0.0 mm
01:15 AM 44.2°F6.8°C 40.9°F4.9°C 88% Calm Calm 2.0 mph3.2 kmh 29.87 in1011.5 mb 0.00 in0.0 mm 0.00 in/hr0.0 mm/hr 0.00 in0.0 mm
01:10 AM 44.0°F6.7°C 41.0°F5.0°C 89% Calm Calm 1.0 mph1.6 kmh 29.88 in1011.9 mb 0.00 in0.0 mm 0.00 in/hr0.0 mm/hr 0.00 in0.0 mm
01:05 AM 44.2°F6.8°C 41.2°F5.1°C 89% Calm Calm -- 29.87 in1011.5 mb 0.00 in0.0 mm 0.00 in/hr0.0 mm/hr 0.00 in0.0 mm
01:00 AM 44.5°F6.9°C 41.5°F5.3°C 89% 1.0 mph SE1.6 kmh SE 4.0 mph6.4 kmh 29.88 in1011.9 mb 0.00 in0.0 mm 0.00 in/hr0.0 mm/hr 0.00 in0.0 mm
12:55 AM 44.7°F7.1°C 41.4°F5.2°C 88% Calm Calm 4.0 mph6.4 kmh 29.88 in1011.9 mb 0.00 in0.0 mm 0.00 in/hr0.0 mm/hr 0.00 in0.0 mm
12:50 AM 44.0°F6.7°C 40.7°F4.8°C 88% Calm Calm 3.0 mph4.8 kmh 29.87 in1011.5 mb 0.00 in0.0 mm 0.00 in/hr0.0 mm/hr 0.00 in0.0 mm
12:45 AM 43.8°F6.6°C 40.5°F4.7°C 88% Calm Calm -- 29.88 in1011.9 mb 0.00 in0.0 mm 0.00 in/hr0.0 mm/hr 0.00 in0.0 mm
12:40 AM 44.1°F6.7°C 40.5°F4.7°C 87% Calm Calm 1.0 mph1.6 kmh 29.88 in1011.9 mb 0.00 in0.0 mm 0.00 in/hr0.0 mm/hr 0.00 in0.0 mm
12:35 AM 44.4°F6.9°C 40.8°F4.9°C 87% Calm Calm 1.0 mph1.6 kmh 29.88 in1011.9 mb 0.00 in0.0 mm 0.00 in/hr0.0 mm/hr 0.00 in0.0 mm
12:30 AM 44.6°F7.0°C 40.7°F4.8°C 86% Calm Calm 1.0 mph1.6 kmh 29.88 in1011.9 mb 0.00 in0.0 mm 0.00 in/hr0.0 mm/hr 0.00 in0.0 mm
12:25 AM 44.5°F6.9°C 40.6°F4.8°C 86% Calm Calm -- 29.88 in1011.9 mb 0.00 in0.0 mm 0.00 in/hr0.0 mm/hr 0.00 in0.0 mm
12:20 AM 44.5°F6.9°C 40.6°F4.8°C 86% Calm Calm -- 29.88 in1011.9 mb 0.00 in0.0 mm 0.00 in/hr0.0 mm/hr 0.00 in0.0 mm
12:15 AM 44.5°F6.9°C 40.6°F4.8°C 86% Calm Calm -- 29.88 in1011.9 mb 0.00 in0.0 mm 0.00 in/hr0.0 mm/hr 0.00 in0.0 mm
12:10 AM 44.4°F6.9°C 40.5°F4.7°C 86% Calm Calm -- 29.88 in1011.9 mb 0.00 in0.0 mm 0.00 in/hr0.0 mm/hr 0.00 in0.0 mm
12:05 AM 44.4°F6.9°C 40.5°F4.7°C 86% Calm Calm -- 29.89 in1012.2 mb 0.00 in0.0 mm 0.00 in/hr0.0 mm/hr 0.00 in0.0 mm
12:00 AM 44.5°F6.9°C 40.3°F4.6°C 85% Calm Calm -- 29.88 in1011.9 mb 0.00 in0.0 mm 0.00 in/hr0.0 mm/hr 0.00 in0.0 mm